CAPE
0 0 0 0 0 0 0 0 0 0 0 0 0 0 0 14 0 0 0 0 0 14 0 21 164 338 392 164 442 406 644 450 445 405 324 419 573 886 1031 1500 1854 2010 2149 2386 2348 2418 2489 2499 2537 2615 2624 2673 2815 2855 2702 2804 2668 2742 2935 3136 3144 2956 2636 2346 2202 2093 1976 1782 1557 1216 1071 1111 1324 1440 1473 944 353 313 134 3 17 10 6 44 25 48 133
0 0 0 0 0 0 0 0 0 0 0 0 0 0 0 0 0 0 13 32 0 0 0 1 76 370 220 467 438 174 120 196 491 386 624 558 625 707 977 1342 1467 1868 2069 2332 2415 2436 2500 2406 2520 2479 2608 2749 2724 2696 2690 2718 2729 2696 3132 3226 3202 2894 2599 2418 2251 2108 2027 1902 1700 1426 1070 866 996 1056 1211 1197 679 184 5 73 242 89 71 70 26 129 184
0 0 0 0 0 0 0 0 0 0 0 0 0 0 0 0 0 0 0 163 102 0 44 39 469 542 63 44 10 42 274 439 409 521 543 638 674 728 1066 1555 1422 1685 1931 2129 2320 2362 2392 2398 2490 2506 2598 2558 2556 2364 2512 2552 2710 2835 3109 3274 3216 2862 2609 2412 2179 2116 2077 2019 1947 1798 1563 1208 866 870 1217 521 632 453 222 0 147 128 124 96 45 46 63
0 0 0 0 0 0 0 0 0 0 0 0 0 0 0 0 0 0 0 0 0 0 0 0 19 115 230 131 339 473 497 334 640 660 707 805 870 856 974 1131 1302 1552 1624 1922 2012 2111 2169 2286 2445 2468 2526 2481 2390 2263 2480 2546 2505 2690 2860 3005 3011 2836 2604 2347 2097 2095 2083 2061 2002 1928 1784 1650 1429 1298 1160 899 577 432 230 208 242 205 160 106 154 95 122
2 1 0 0 0 0 0 0 0 0 0 0 0 0 0 0 0 0 0 0 0 0 131 10 34 12 124 246 274 492 563 634 549 828 946 870 911 1024 1095 1234 1340 1295 1305 1564 1834 1833 1951 2000 2144 2204 2459 2262 2353 2424 2537 2618 2546 2842 2938 2983 2969 2803 2499 2224 2006 2018 2008 1996 1969 1886 1784 1666 1605 1538 1169 932 558 224 196 397 436 290 28 207 227 105 112
39 34 0 0 0 0 0 0 0 0 0 0 0 0 0 0 0 0 0 0 0 62 125 0 119 140 261 394 711 619 729 868 830 753 1092 1016 900 835 831 1135 1217 1342 1413 1410 1595 1940 2096 2044 1962 2150 2071 2171 2388 2524 2689 2916 2945 2969 2962 2926 2874 2705 2435 2118 1908 1887 1884 1895 1889 1835 1743 1683 1638 1630 1624 1281 930 628 694 653 629 383 296 300 150 127 121
12 56 0 0 0 0 1 79 4 0 0 0 0 0 0 0 0 0 0 1 36 126 12 79 161 171 942 130 175 102 54 236 476 656 620 912 789 868 1145 1187 1034 1431 1546 1612 1693 1867 1755 1633 1940 2114 2060 2045 2338 2412 2598 2731 2907 2982 2892 2880 2678 2552 2256 1982 1759 1777 1804 1795 1796 1770 1723 1668 1589 1540 1574 1100 1191 1031 696 509 548 321 288 173 244 240 248
16 19 12 11 24 40 33 0 10 0 0 0 0 0 0 7 0 0 0 0 0 157 172 92 254 248 116 100 150 147 125 285 386 342 466 550 613 908 901 1243 1552 1677 1339 1514 1424 1701 1741 2053 1908 1820 2000 1875 1908 2304 2587 2726 2842 2796 2768 2692 2532 2296 2076 1727 1662 1698 1716 1727 1706 1717 1671 1586 1478 1460 1423 1157 1019 759 536 358 294 280 174 276 314 285 384
48 182 20 28 144 19 19 29 34 20 16 0 0 0 0 19 2 0 0 0 71 55 30 42 31 110 61 249 212 15 40 86 152 433 607 576 791 1120 1298 1120 1500 2028 1896 2012 1745 2203 1956 1810 1920 1887 2033 1864 2100 2380 2399 2580 2718 2620 2525 2486 2358 2090 1822 1558 1545 1562 1592 1605 1625 1620 1588 1497 1412 1368 1344 1378 975 706 442 361 278 201 182 260 321 304 342
11 24 13 49 17 2 91 64 74 24 2 17 67 66 80 70 32 0 0 55 122 207 54 2 80 221 68 58 176 180 168 60 123 185 480 572 784 1062 1177 2035 1990 2077 2119 2115 2090 1718 1818 2104 2475 2438 2137 2163 2375 2431 2535 2569 2526 2450 2302 2288 2155 1874 1680 1409 1412 1433 1437 1458 1492 1498 1515 1474 1386 1314 1292 1136 713 464 375 165 1 41 181 296 402 478 487
20 24 11 9 30 69 448 238 100 76 17 15 64 3 1 292 55 31 36 58 256 295 197 227 182 103 60 196 309 490 398 194 154 460 528 582 841 1143 1288 1518 1838 2123 2407 2290 2016 2203 2154 2060 1838 2039 2226 2336 2325 2473 2488 2380 2318 2238 2159 2128 1875 1676 1557 1312 1305 1308 1323 1365 1396 1417 1450 1414 1319 1214 1159 900 580 235 106 139 62 195 240 310 499 636 588
38 23 2 6 82 121 261 129 88 60 74 6 28 7 13 320 77 119 79 94 197 211 310 250 305 206 192 393 299 581 1042 796 1066 1337 1328 1339 1284 1413 1688 1898 2092 2047 1986 2064 2172 2042 1791 1501 1432 1804 1936 2088 2333 2346 2208 2020 2059 2102 1976 1846 1666 1508 1315 1261 1267 1266 1282 1302 1332 1358 1350 1337 1242 1088 933 707 407 106 114 144 203 331 427 453 613 691 676
26 16 21 132 244 412 202 41 40 54 85 71 125 17 251 236 227 72 26 66 70 186 162 118 358 294 1020 1234 1162 1361 1371 1243 1413 1615 1700 1787 1800 1733 1615 1532 1546 1694 1718 1834 1754 1577 1390 1315 1372 1552 1842 1956 1837 1740 1775 1878 1978 1888 1747 1551 1359 1285 1224 1237 1228 1220 1228 1222 1267 1264 1245 1213 1148 870 680 388 106 113 152 198 331 567 708 811 780 977 979
35 16 11 19 202 180 5 32 16 84 2 46 138 402 5 64 65 17 14 8 10 89 468 556 1089 1449 1260 1309 1473 1775 1833 1912 1852 1619 1574 1484 1409 1396 1412 1410 1370 1344 1282 1295 1208 1114 1148 1200 1155 1339 1677 1786 1546 1577 1628 1816 1852 1506 1380 1280 1212 1141 1163 1142 1184 1170 1163 1197 1176 1186 1153 1107 1092 726 406 250 186 222 228 374 556 678 946 1200 1228 1199 1264
24 12 50 4 27 454 4 210 278 215 219 569 174 166 156 102 242 291 474 414 580 985 1242 1450 1523 1395 1387 1549 1732 1861 1983 2088 2105 2048 2002 1869 1665 1584 1500 1342 1302 1410 1476 1366 1148 882 993 1097 1334 1348 1582 1624 1551 1430 1746 1739 1301 1159 1176 1120 1116 1124 1161 1192 1173 1131 1102 1102 1122 1133 1122 1142 983 713 397 292 325 445 500 554 677 986 1257 1265 1184 1212 944
797 476 276 63 344 78 13 0 210 348 240 148 230 445 465 530 588 754 828 1013 1202 1356 1504 1418 1433 1469 1445 1526 1639 1602 1593 1708 1958 2154 2305 2250 1939 1508 1190 1097 1212 1383 1193 874 853 1012 1106 1148 1292 1388 1648 1653 1542 1678 1796 1235 1147 1104 1100 1150 1194 1206 1170 1179 1123 1086 1058 1033 1044 1032 1054 1060 1002 819 531 332 478 660 807 968 1187 1296 1351 1171 892 900 868
304 587 753 60 67 103 120 65 2 181 421 630 641 727 722 695 693 839 823 791 821 928 1082 1231 1188 1164 1249 1360 1424 1580 1570 1561 1473 1369 1440 1653 1702 1639 1376 1096 1075 1174 1178 1021 977 1080 1227 1363 1508 1496 1652 1867 1696 1928 1400 1128 1078 1095 1184 1218 1243 1202 1181 1155 1092 1032 978 964 980 967 966 943 903 760 632 473 587 871 1096 1133 1340 1502 1365 1192 1220 1258 1058
262 14 17 30 144 177 174 114 347 330 329 323 314 319 251 276 323 332 445 488 600 824 1012 838 918 1017 1032 1074 1070 1248 1504 1665 1954 1886 1723 1685 1650 1620 1471 1202 1036 1013 1061 1136 1175 1248 1319 1540 1638 1676 1706 1812 2124 1792 1213 1100 1104 1192 1234 1255 1234 1203 1164 1115 1048 955 900 869 864 852 825 788 786 770 708 505 548 836 858 998 1063 1134 1305 1245 1264 1111 958
79 21 320 74 64 121 108 121 89 85 86 69 55 51 81 84 50 40 138 132 75 164 460 594 663 658 789 816 1020 1249 1354 1251 1594 1889 2255 2166 2070 2094 1823 1493 1335 1317 1232 1261 1372 1338 1482 1562 1531 1625 1559 1484 1700 1228 1122 1091 1145 1187 1198 1188 1175 1142 1100 1086 1040 950 851 810 785 764 748 751 770 779 736 596 522 629 758 916 1095 1190 1142 968 657 906 983
222 12 116 52 65 114 80 71 63 58 64 46 36 22 34 112 112 131 122 123 94 128 183 466 480 540 724 1000 1099 960 1149 1336 1445 1533 1609 1873 1926 1500 1672 1597 1546 1589 1668 1616 1448 1360 1495 1479 1550 1474 1383 1312 1259 1166 1089 1141 1185 1214 1142 1030 981 959 975 991 1000 964 876 768 730 726 697 714 775 788 795 736 604 796 830 1008 1133 1160 964 742 760 944 931
0 5 150 0 0 3 96 31 19 21 24 2 0 0 29 36 83 94 90 107 97 93 111 384 500 584 595 856 1058 941 1242 1468 1438 1386 1496 1479 1509 1629 1754 1658 1716 1934 1670 1516 1393 1353 1336 1358 1378 1405 1257 1197 1154 1121 1140 1202 1297 1244 1064 872 836 858 777 803 858 876 857 810 773 903 948 716 746 700 771 784 882 650 458 758 976 974 887 735 777 782 852
20 170 0 1 0 0 0 0 20 0 0 0 14 0 0 13 81 80 80 37 0 56 76 118 129 116 145 138 519 434 1052 1324 1401 1332 1190 1119 1176 1326 1305 1348 1414 1443 1472 1555 1345 1177 1139 1152 1176 1195 1191 1168 1147 1151 1212 1302 1310 1180 1011 928 927 940 877 851 779 740 741 856 764 749 710 589 589 626 699 791 827 770 718 638 517 559 635 852 658 692 613
70 67 0 0 0 0 0 0 0 0 0 9 37 34 0 0 26 63 49 60 68 100 120 101 110 133 140 109 74 64 47 707 1068 1139 1112 1136 1138 1162 1166 1281 1347 1489 1389 1317 1282 1138 1058 946 983 1028 1120 1128 1170 1213 1304 1392 1203 1001 1002 922 782 743 698 666 689 766 660 720 765 768 621 70 427 452 476 477 493 497 408 392 467 440 462 444 322 262 386
0 0 0 0 0 0 0 0 0 0 0 0 6 8 8 22 28 23 30 26 28 36 30 31 39 42 44 47 37 44 62 54 49 38 620 841 960 1085 1172 1240 1263 1220 1177 1187 1128 1164 1003 911 1024 1002 1036 1099 1165 1272 1361 1220 875 974 912 877 816 733 691 725 700 827 659 603 461 319 243 158 439 472 488 396 85 0 0 0 0 228 277 298 346 350 331
0 0 0 0 0 0 0 0 0 0 0 0 0 0 0 0 0 0 0 0 0 0 0 0 0 4 24 42 14 9 13 40 15 48 268 438 433 690 853 1230 1388 1285 1269 1184 1175 1124 974 980 1134 1099 1001 1065 1168 1296 1273 898 810 916 958 894 829 862 853 698 652 763 643 605 428 261 327 393 322 0 10 9 7 7 0 0 126 237 288 311 316 326 298
0 0 0 0 0 0 0 0 0 0 0 0 0 0 0 0 0 0 0 0 0 0 0 0 11 39 53 55 52 57 6 15 3 0 0 39 160 332 499 680 1040 1304 1125 1100 1066 1074 1024 1130 1227 1099 1035 1020 1150 1180 963 702 762 987 1014 1048 1076 892 735 639 794 724 569 534 344 244 80 24 8 0 0 0 0 0 249 240 269 280 309 318 291 256 230
9 2 6 3 17 13 0 1 0 0 0 0 0 0 0 0 0 0 0 0 0 0 2 11 26 46 38 24 6 0 0 0 0 0 0 0 0 59 296 574 932 1252 1199 1090 1125 1067 1008 1100 1236 1206 1130 958 1046 968 782 706 681 664 832 806 723 424 398 558 755 968 564 492 184 102 30 20 7 1 154 247 322 324 322 312 314 360 364 343 316 249 152
8 9 47 16 60 44 4 5 7 0 0 0 0 0 0 0 0 0 0 0 0 0 0 0 1 0 0 0 0 0 0 0 0 0 0 0 0 1 198 558 835 1146 1194 1098 1080 995 1032 1214 1260 1263 1187 950 947 858 820 804 779 756 613 580 575 581 795 645 587 772 819 666 510 286 238 307 386 416 410 411 414 414 398 418 400 411 365 329 261 234 210
12 2 11 25 18 32 13 32 7 0 0 0 0 0 0 0 0 0 0 0 1 0 0 0 0 0 0 0 0 0 0 0 0 0 0 0 0 0 40 393 729 938 1178 1154 963 1022 1075 1316 1430 1429 1234 932 911 985 978 966 902 816 650 640 595 487 611 1131 1193 1006 1068 1058 738 627 595 560 537 534 509 491 482 464 446 399 320 239 218 212 197 182 158
19 2 8 12 1 18 31 8 0 4 29 40 6 3 8 16 0 0 0 0 0 0 0 0 0 0 0 0 0 0 0 0 0 0 0 0 0 0 32 347 622 985 1118 1158 1033 892 1150 1267 1406 1480 1114 958 1022 1076 1093 981 952 756 488 378 364 467 674 1049 1418 1358 1324 1124 690 620 579 580 582 540 547 534 466 342 269 246 193 179 184 171 185 171 134
0 0 0 0 0 3 15 13 0 0 2 0 0 0 0 0 0 0 4 6 5 2 0 0 0 0 0 0 0 0 0 0 0 0 0 0 0 0 16 183 100 148 581 986 1227 940 888 1066 1172 1254 1156 1074 1088 1079 997 891 852 839 653 502 604 440 404 728 1107 1220 1176 919 570 596 552 507 458 410 344 314 264 200 190 170 182 201 205 230 197 159 0
0 0 0 0 0 0 1 0 0 0 0 0 0 0 0 0 0 0 0 0 0 0 0 0 0 0 0 0 0 0 0 0 0 0 0 0 0 0 0 33 203 313 622 905 1148 1116 899 921 1051 1154 1133 1141 1135 1094 1008 897 830 703 447 566 988 698 771 796 712 637 1098 1131 991 852 589 470 387 350 267 190 181 215 192 206 214 213 205 168 0 0 0
11 11 9 2 0 0 0 0 0 0 0 0 0 0 0 0 0 0 0 0 0 0 0 0 0 0 0 0 0 0 0 0 0 0 0 0 0 0 0 3 78 196 365 503 762 844 773 796 812 791 853 900 802 856 921 817 632 478 574 641 738 747 643 576 739 961 1038 934 924 855 667 526 456 454 367 226 247 212 220 228 182 111 2 0 3 0 0
1 0 0 0 0 0 0 0 0 0 0 0 0 0 0 0 0 0 0 0 0 0 0 0 0 0 0 0 0 0 0 0 0 0 0 0 0 0 0 9 20 38 72 144 302 489 526 604 640 713 740 756 727 668 662 456 588 713 786 621 878 944 742 723 800 932 800 738 760 740 838 682 692 608 429 261 230 234 258 192 79 41 2 0 0 0 0
0 0 0 0 0 0 0 0 0 0 0 0 0 0 0 0 0 0 0 0 0 0 0 0 0 0 0 0 0 0 0 0 0 0 0 0 0 0 0 0 9 32 75 60 62 153 236 414 516 564 578 649 597 522 443 401 660 858 782 839 873 898 933 838 828 760 750 754 914 923 889 745 467 401 360 305 287 223 20 14 111 76 3 0 0 0 0
0 0 0 0 0 0 0 0 0 0 0 0 0 0 0 0 0 0 0 0 0 0 0 0 0 0 0 2 2 1 2 2 2 2 2 2 2 2 2 2 2 2 44 58 6 37 89 235 365 416 424 456 429 397 363 390 524 657 882 878 903 910 898 846 796 665 606 644 700 773 612 388 374 382 393 392 184 25 18 14 11 20 24 9 0 0 0
0 0 0 0 0 0 0 0 0 0 0 0 0 0 0 0 0 0 0 0 0 0 2 0 0 0 0 3 1 2 3 4 4 3 3 2 2 2 3 3 2 3 15 138 99 56 172 260 206 274 436 457 375 481 594 522 805 874 975 920 951 833 681 574 457 290 189 273 332 433 299 303 357 292 311 322 69 44 144 38 67 51 17 12 1 0 0
0 0 0 0 0 0 0 0 0 0 0 0 0 0 0 0 0 0 0 0 0 1 2 0 0 0 2 4 4 4 6 5 8 9 8 6 2 3 3 4 8 22 73 116 44 206 535 429 358 483 572 788 832 846 592 546 654 754 810 586 548 389 406 362 227 218 286 416 468 510 460 320 234 159 118 27 14 22 49 67 79 67 68 27 8 12 11
13 9 4 0 0 0 0 0 0 0 0 0 0 0 0 0 0 0 0 0 0 2 1 0 0 2 3 2 5 7 9 10 19 9 10 6 10 8 6 4 2 4 3 4 90 338 183 267 290 420 401 332 780 818 592 334 256 448 563 518 499 389 315 282 244 245 290 311 366 332 270 217 116 28 17 82 55 10 20 6 12 32 14 8 8 7 2
30 16 10 2 0 0 0 0 0 0 0 0 0 0 0 0 0 0 0 0 1 2 2 1 3 2 2 3 4 8 10 19 24 20 14 12 8 10 15 6 4 5 9 15 76 419 384 121 453 463 500 602 694 616 456 154 254 374 354 389 393 324 261 228 258 288 290 244 107 105 110 81 82 40 29 26 20 38 34 48 42 26 10 11 13 8 9
46 39 23 22 5 0 0 0 0 0 0 0 0 0 0 0 0 0 0 0 1 2 2 2 4 4 2 2 3 4 12 13 14 7 8 10 5 2 2 1 0 20 14 28 33 138 199 89 292 291 330 484 501 420 335 140 105 172 245 302 269 218 185 200 198 214 216 211 165 58 26 12 12 17 20 28 32 32 31 22 19 23 17 21 22 18 18
48 54 53 36 28 13 5 0 0 0 0 0 0 0 0 0 0 0 1 1 0 0 1 2 2 3 1 1 1 2 4 7 10 12 8 6 4 6 4 3 6 32 67 170 204 94 82 91 108 201 460 556 500 420 222 109 150 210 216 170 127 111 88 71 78 91 134 112 66 41 31 22 13 14 18 24 24 25 19 16 20 30 34 32 33 30 29
114 88 74 71 97 85 29 29 8 1 0 0 0 0 4 4 1 1 0 1 1 1 2 2 1 1 1 0 0 1 2 2 3 4 4 2 2 2 4 6 112 386 68 92 42 58 40 91 243 280 212 448 512 426 155 144 168 181 226 148 148 102 71 56 54 89 92 73 40 51 68 40 27 22 25 24 23 25 28 25 19 17 16 19 20 20 29
95 96 136 150 126 127 144 106 57 38 22 12 12 38 57 44 18 9 2 0 0 3 4 3 1 1 1 1 1 1 2 1 3 8 12 11 14 2 7 26 66 40 9 40 68 85 64 44 70 31 69 336 396 175 181 164 144 144 144 134 130 98 95 102 101 77 25 78 49 34 28 12 1 0 0 0 0 0 0 0 0 0 6 16 25 18 18
152 167 206 186 237 221 176 144 112 42 35 42 49 77 86 106 100 44 28 33 36 45 34 18 22 18 16 10 6 1 1 0 0 6 22 36 37 26 18 16 32 108 84 14 136 28 9 14 23 46 58 60 36 12 27 16 16 8 30 32 87 68 45 38 12 11 0 0 0 0 0 0 0 0 0 0 0 0 0 0 0 0 0 0 0 12 36
111 144 162 224 210 178 159 181 163 134 80 168 189 117 118 140 173 196 154 92 136 126 76 63 66 77 58 68 141 198 230 250 249 60 110 78 56 36 21 82 79 143 86 27 60 30 42 0 0 49 29 0 0 0 0 0 0 0 0 0 0 0 0 0 0 0 0 0 0 0 0 0 0 0 0 0 0 0 0 0 0 0 0 0 0 10 30
129 222 256 274 297 199 160 170 152 269 272 194 154 137 182 186 216 326 229 114 116 137 177 180 223 205 155 107 172 298 222 162 43 118 102 102 90 88 109 155 238 257 340 340 129 44 11 6 2 61 30 0 0 0 0 0 0 0 0 0 0 0 0 0 0 0 0 0 0 0 0 0 0 0 0 0 0 0 0 0 0 0 0 0 0 0 5
127 159 189 268 443 402 240 238 395 309 148 172 181 283 247 247 274 250 240 259 312 338 376 392 325 290 236 202 187 236 367 288 52 20 42 45 71 233 228 441 473 317 417 345 42 0 0 27 78 64 2 0 0 0 0 0 0 0 0 0 0 0 0 0 0 0 0 0 0 0 0 0 0 0 0 0 0 0 0 0 0 0 0 0 0 0 0
148 127 162 248 408 476 425 437 357 433 474 298 319 398 271 280 517 378 287 386 361 339 216 178 235 219 177 211 136 138 234 300 223 104 146 172 168 165 284 420 428 468 476 199 102 56 0 0 6 34 10 0 0 0 0 0 0 0 0 0 0 0 0 0 0 0 0 0 0 0 0 0 0 0 0 0 0 0 0 0 0 0 0 0 0 0 0
228 280 337 462 476 528 449 467 447 666 604 514 570 480 324 350 332 160 268 120 217 245 216 103 74 429 246 126 76 137 223 260 336 453 450 415 405 395 420 479 507 543 477 334 162 45 36 3 1 38 53 26 0 0 0 0 0 0 0 0 0 0 0 0 0 0 0 0 0 0 0 0 0 0 0 0 0 0 0 0 0 0 0 0 0 0 0
389 280 230 222 242 368 434 442 502 540 596 540 477 334 366 225 186 252 222 150 204 113 51 48 75 73 88 85 106 127 237 240 266 356 440 560 676 364 388 524 620 588 514 336 255 131 69 82 132 93 113 168 32 2 0 0 0 0 0 0 0 0 0 0 0 0 0 0 0 0 0 0 0 0 0 0 0 0 0 0 0 0 0 0 0 0 0
120 98 103 161 316 503 575 568 540 442 390 357 296 250 190 232 217 107 103 110 111 57 52 56 43 50 63 65 62 65 85 98 166 218 332 410 541 461 464 472 513 597 600 519 414 406 208 113 108 112 99 136 128 50 29 28 26 23 19 9 0 0 0 0 0 0 0 0 0 0 0 0 0 0 0 0 0 0 0 0 0 0 0 0 0 0 0
Wind_Speed
nan nan nan nan nan nan nan nan nan nan nan nan nan nan nan nan nan nan nan nan nan nan nan nan 28 28 27 24 20 18 19 24 24 22 18 15 16 18 19 18 20 23 25 25 23 20 17 17 16 16 16 16 16 17 17 17 19 21 23 25 26 28 28 27 29 32 35 38 40 43 49 49 46 46 46 44 46 47 43 nan nan nan nan nan nan nan 22
nan nan nan nan nan nan nan nan nan nan nan nan nan nan nan nan nan nan nan nan nan nan nan nan nan 26 25 23 26 26 16 11 16 14 13 14 17 17 15 16 18 20 23 25 23 20 18 19 18 17 17 18 18 19 19 19 21 22 25 27 27 28 28 28 30 33 37 40 43 47 50 48 51 54 49 44 46 46 nan nan 39 nan nan nan nan 21 23
nan nan nan nan nan nan nan nan nan nan nan nan nan nan nan nan nan nan nan 50 43 nan nan nan 37 40 nan nan nan nan 13 15 14 12 12 15 15 13 13 17 20 22 24 25 24 22 20 20 20 20 20 19 19 21 21 23 25 27 29 29 29 30 29 29 32 34 38 42 45 50 50 48 50 51 55 53 45 45 51 nan 27 24 29 nan nan nan nan
nan nan nan nan nan nan nan nan nan nan nan nan nan nan nan nan nan nan nan nan nan nan nan nan nan 34 30 21 15 15 17 15 14 13 13 15 15 15 17 20 22 25 26 27 25 23 23 22 23 23 24 23 24 25 26 28 30 31 32 33 33 33 33 33 35 37 40 43 46 49 50 51 50 51 53 51 46 51 53 38 23 31 34 27 25 nan 24
nan nan nan nan nan nan nan nan nan nan nan nan nan nan nan nan nan nan nan nan nan nan 41 nan nan nan 23 23 23 20 19 20 17 15 16 17 17 19 22 24 25 26 28 28 27 26 26 25 25 26 29 29 29 30 31 32 34 35 36 36 36 37 37 38 40 41 43 46 48 50 51 51 50 48 51 52 46 51 46 27 24 36 nan 27 28 26 24
nan nan nan nan nan nan nan nan nan nan nan nan nan nan nan nan nan nan nan nan nan nan 42 nan 29 27 24 22 25 28 25 21 18 16 19 21 22 24 26 27 28 29 31 30 29 30 30 29 29 31 32 32 32 33 34 35 36 36 37 37 38 39 39 41 44 47 49 50 51 51 51 51 49 49 51 52 47 42 34 27 31 35 31 29 29 26 24
nan nan nan nan nan nan nan nan nan nan nan nan nan nan nan nan nan nan nan nan nan 39 nan nan 25 26 36 38 33 26 nan 21 21 20 24 25 25 27 31 33 34 34 34 33 33 33 33 33 32 33 32 32 34 36 36 36 36 38 37 38 39 40 41 45 49 51 52 53 53 52 53 53 50 50 51 51 49 43 37 36 38 35 30 30 29 26 25
nan nan nan nan nan nan nan nan nan nan nan nan nan nan nan nan nan nan nan nan nan 35 32 nan 37 37 38 nan 37 33 27 22 20 22 22 24 25 27 30 35 36 36 34 34 34 34 34 34 34 34 34 36 37 38 38 37 38 38 38 39 40 42 45 49 52 54 54 55 53 52 51 50 48 48 50 51 48 44 41 39 36 33 31 29 27 26 26
nan 48 nan nan 50 nan nan nan nan nan nan nan nan nan nan nan nan nan nan nan nan nan nan nan nan 37 nan 35 36 nan nan nan 23 23 25 27 30 34 35 35 36 36 35 36 36 38 37 35 35 35 38 39 40 41 39 38 39 39 40 41 43 46 48 51 54 56 57 56 53 51 49 49 48 49 51 50 46 43 41 39 37 36 33 30 27 26 26
nan nan nan nan nan nan nan nan nan nan nan nan nan nan nan nan nan nan nan nan 34 35 nan nan nan 36 nan nan 32 34 31 nan 26 29 33 35 38 38 38 41 44 43 43 42 41 38 37 36 37 39 41 42 42 41 40 40 41 41 42 44 47 49 51 54 57 59 58 55 51 48 48 48 48 49 50 46 44 43 42 40 nan nan 34 29 25 22 23
nan nan nan nan nan nan 50 48 45 nan nan nan nan nan nan 53 nan nan nan nan 36 35 36 39 38 35 nan 31 33 34 32 31 32 35 37 39 43 44 45 45 47 46 44 43 42 42 41 41 40 42 44 45 43 40 39 40 41 42 43 46 50 52 54 56 58 59 55 51 48 46 46 47 49 51 49 45 43 43 42 41 nan 37 32 26 22 19 19
nan nan nan nan nan 46 48 47 nan nan nan nan nan nan nan 49 nan 41 nan nan 35 35 36 37 34 32 30 31 34 34 36 38 40 40 42 45 47 48 50 51 49 48 45 45 44 43 44 44 44 46 46 45 44 43 42 41 41 41 45 48 52 55 57 58 57 55 51 48 46 44 45 46 48 49 47 44 43 42 41 40 40 36 31 26 20 17 17
nan nan nan 47 42 43 48 nan nan nan nan nan 32 nan 51 53 45 nan nan nan nan 39 39 36 36 41 41 43 43 40 41 46 48 47 47 47 48 50 51 51 49 47 44 44 45 46 45 45 44 45 46 48 48 47 45 42 41 43 48 52 55 58 60 58 54 52 48 46 45 44 44 46 47 46 44 42 42 40 40 40 39 35 30 24 18 15 19
nan nan nan nan 44 44 nan nan nan nan nan nan 30 45 nan nan nan nan nan nan nan nan 41 41 43 43 44 45 43 43 43 48 49 49 49 52 54 54 54 51 49 46 44 45 47 47 46 46 44 45 48 51 51 50 45 42 44 47 51 54 58 60 58 54 50 48 46 45 44 43 44 44 43 41 40 40 39 39 39 39 37 31 26 22 19 18 23
nan nan nan nan nan 43 nan 53 40 35 30 34 33 36 47 50 50 49 49 48 45 44 46 45 44 43 44 46 47 46 45 48 51 51 51 52 51 51 50 48 43 43 44 46 47 48 48 49 47 47 49 51 51 49 45 46 48 52 55 58 59 57 52 47 45 45 44 45 43 41 42 42 40 39 39 39 39 39 39 36 29 24 23 24 22 22 23
42 48 44 nan 46 nan nan nan 40 41 34 30 26 32 44 50 50 50 50 51 49 48 47 47 45 43 44 44 44 46 48 48 50 54 54 53 51 52 52 50 47 50 50 50 53 53 53 52 52 50 47 48 49 48 48 49 53 56 59 58 55 50 46 43 44 44 44 44 42 41 42 40 39 39 39 39 39 40 39 34 27 25 28 28 24 22 26
34 35 39 nan nan 41 46 nan nan 39 36 30 30 34 41 46 51 49 50 50 49 48 49 50 48 47 45 46 46 48 47 48 51 56 55 55 55 54 54 55 55 55 55 54 55 56 53 53 52 50 47 48 49 49 51 54 57 58 57 54 50 47 44 42 42 43 43 43 42 41 41 40 39 39 39 40 40 40 39 36 33 34 35 34 29 25 27
37 nan nan nan 38 43 49 48 46 43 39 36 33 35 40 44 48 50 51 51 50 50 49 53 51 49 48 52 52 53 54 55 57 58 58 56 55 53 52 53 55 54 53 53 53 52 51 50 50 49 48 48 50 52 55 56 55 53 52 51 49 46 43 42 42 44 44 43 41 40 40 39 39 39 39 40 41 41 39 38 38 39 39 36 31 29 31
nan nan 28 nan nan 44 50 48 nan nan nan nan nan nan nan nan nan nan 52 52 nan 51 53 54 52 53 53 55 54 53 53 55 56 56 53 49 47 46 48 47 49 48 49 50 50 49 49 49 49 49 50 51 53 56 54 52 50 49 48 48 46 45 44 43 44 43 43 42 40 39 38 38 38 38 39 40 40 41 40 40 42 41 40 37 33 32 35
40 nan 29 nan nan 47 nan nan nan nan nan nan nan nan nan 49 50 50 50 54 nan 55 56 54 55 54 53 51 48 49 49 47 45 44 43 43 44 45 45 44 45 47 46 47 48 49 50 49 50 51 52 52 53 51 48 46 46 46 45 44 44 45 46 45 44 42 41 41 40 39 38 38 38 39 40 40 41 42 43 44 42 41 38 35 33 35 37
nan nan 36 nan nan nan nan nan nan nan nan nan nan nan nan nan nan nan nan 56 nan nan 56 56 56 55 53 49 47 48 47 46 44 43 43 45 46 46 45 43 43 43 44 46 47 47 47 47 47 49 49 48 47 46 44 44 44 43 44 45 45 46 45 44 43 42 40 41 40 40 41 43 43 42 41 41 41 44 44 42 41 39 38 36 35 36 38
nan 28 nan nan nan nan nan nan nan nan nan nan nan nan nan nan nan nan nan nan nan nan nan 58 58 57 53 52 51 52 50 50 48 48 47 47 48 47 45 44 44 45 45 45 43 41 40 39 39 39 41 41 40 40 42 42 43 43 45 45 44 44 43 42 42 42 41 42 43 44 45 45 46 47 50 49 45 42 44 44 40 39 37 37 36 37 38
nan nan nan nan nan nan nan nan nan nan nan nan nan nan nan nan nan nan nan nan nan nan 57 56 57 55 54 51 nan nan nan 50 49 49 49 49 49 48 45 44 44 44 43 40 38 36 35 36 35 35 36 37 38 38 39 39 40 41 43 43 42 42 43 42 43 44 44 45 47 47 47 nan 46 47 48 51 54 51 46 44 42 41 39 34 32 34 36
nan nan nan nan nan nan nan nan nan nan nan nan nan nan nan nan nan nan nan nan nan nan nan nan nan nan nan nan nan nan nan nan nan nan 52 52 48 43 39 37 36 36 36 34 31 30 32 33 34 35 35 36 37 37 36 36 37 39 41 43 43 44 44 46 48 46 45 47 49 49 48 48 48 49 50 51 nan nan nan nan nan 46 45 44 41 41 42
nan nan nan nan nan nan nan nan nan nan nan nan nan nan nan nan nan nan nan nan nan nan nan nan nan nan nan nan nan nan nan nan nan nan 48 46 43 39 36 35 33 32 32 32 32 33 34 34 35 36 36 37 37 36 36 36 38 41 43 44 44 46 48 49 49 48 48 49 49 49 50 50 50 nan nan nan nan nan nan nan 50 49 47 46 46 46 47
nan nan nan nan nan nan nan nan nan nan nan nan nan nan nan nan nan nan nan nan nan nan nan nan nan nan nan nan nan nan nan nan nan nan nan nan 40 39 38 36 34 33 34 35 36 37 37 37 37 37 37 37 38 38 39 41 42 43 44 45 45 47 49 50 50 49 49 49 50 50 nan nan nan nan nan nan nan nan 51 49 47 46 45 44 44 46 46
nan nan nan nan nan nan nan nan nan nan nan nan nan nan nan nan nan nan nan nan nan nan nan nan nan nan nan nan nan nan nan nan nan nan nan nan nan nan 34 33 33 33 34 36 37 37 37 38 37 37 38 39 41 43 44 45 45 45 46 47 48 50 51 50 49 50 50 51 51 51 nan nan nan nan 48 47 48 48 46 45 43 42 42 42 42 42 45
nan nan nan nan nan nan nan nan nan nan nan nan nan nan nan nan nan nan nan nan nan nan nan nan nan nan nan nan nan nan nan nan nan nan nan nan nan nan 33 33 34 36 36 37 36 37 37 37 37 38 40 42 44 44 44 44 45 46 48 49 50 50 50 49 48 48 49 50 49 49 49 49 48 47 46 44 43 41 41 41 42 43 43 44 45 45 49
nan nan nan nan nan nan nan nan nan nan nan nan nan nan nan nan nan nan nan nan nan nan nan nan nan nan nan nan nan nan nan nan nan nan nan nan nan nan nan 36 37 38 39 38 38 38 37 37 37 38 39 42 43 44 45 47 48 49 49 48 47 45 44 44 45 46 47 48 48 48 48 47 45 42 41 40 40 40 41 42 43 44 46 47 47 46 46
nan nan nan nan nan nan nan nan nan nan nan nan nan nan nan nan nan nan nan nan nan nan nan nan nan nan nan nan nan nan nan nan nan nan nan nan nan nan nan 37 36 38 38 38 36 36 34 34 34 36 37 41 44 47 49 51 51 51 51 48 45 42 41 41 42 44 45 45 47 49 45 42 40 40 42 42 42 43 44 45 46 47 47 46 46 46 45
nan nan nan nan nan nan nan nan nan nan nan nan nan nan nan nan nan nan nan nan nan nan nan nan nan nan nan nan nan nan nan nan nan nan nan nan nan nan nan 37 37 36 35 33 33 33 33 34 36 38 41 45 47 49 51 52 51 49 47 47 46 46 45 44 41 41 43 45 46 45 45 45 45 45 46 45 45 46 47 47 47 46 46 45 44 43 nan
nan nan nan nan nan nan nan nan nan nan nan nan nan nan nan nan nan nan nan nan nan nan nan nan nan nan nan nan nan nan nan nan nan nan nan nan nan nan nan nan 33 32 31 31 32 34 36 38 39 41 46 47 50 50 51 52 52 47 44 45 47 46 45 45 43 45 45 46 47 48 48 49 48 47 46 46 47 48 47 46 45 45 44 44 nan nan nan
nan nan nan nan nan nan nan nan nan nan nan nan nan nan nan nan nan nan nan nan nan nan nan nan nan nan nan nan nan nan nan nan nan nan nan nan nan nan nan nan nan 33 34 34 34 35 36 38 42 47 47 48 49 51 52 51 50 48 47 49 49 47 46 46 47 49 50 50 48 46 45 45 46 46 46 47 47 45 44 44 44 44 nan nan nan nan nan
nan nan nan nan nan nan nan nan nan nan nan nan nan nan nan nan nan nan nan nan nan nan nan nan nan nan nan nan nan nan nan nan nan nan nan nan nan nan nan nan nan nan nan 38 38 39 40 40 44 47 47 48 51 51 50 51 50 49 49 50 50 50 50 49 48 49 50 49 47 45 45 45 46 46 46 46 44 43 43 43 nan nan nan nan nan nan nan
nan nan nan nan nan nan nan nan nan nan nan nan nan nan nan nan nan nan nan nan nan nan nan nan nan nan nan nan nan nan nan nan nan nan nan nan nan nan nan nan nan nan nan nan nan 40 40 42 44 45 47 48 50 50 50 50 51 51 52 51 51 50 50 49 48 48 48 49 48 48 47 47 47 46 46 45 43 42 nan nan 39 nan nan nan nan nan nan
nan nan nan nan nan nan nan nan nan nan nan nan nan nan nan nan nan nan nan nan nan nan nan nan nan nan nan nan nan nan nan nan nan nan nan nan nan nan nan nan nan nan nan nan nan nan nan 39 42 45 45 47 49 50 51 51 51 51 52 51 50 49 48 46 45 45 46 48 48 46 44 44 44 43 43 42 41 nan nan nan nan nan nan nan nan nan nan
nan nan nan nan nan nan nan nan nan nan nan nan nan nan nan nan nan nan nan nan nan nan nan nan nan nan nan nan nan nan nan nan nan nan nan nan nan nan nan nan nan nan nan 35 nan nan 38 39 44 48 46 46 48 50 50 51 50 50 49 49 48 46 44 41 40 40 42 42 42 40 40 40 41 41 41 39 nan nan 34 nan nan nan nan nan nan nan nan
nan nan nan nan nan nan nan nan nan nan nan nan nan nan nan nan nan nan nan nan nan nan nan nan nan nan nan nan nan nan nan nan nan nan nan nan nan nan nan nan nan nan nan 36 nan 37 39 42 46 44 43 43 44 45 47 50 50 47 46 45 46 44 43 43 42 41 39 38 36 35 35 36 36 35 35 nan nan nan nan nan nan nan nan nan nan nan nan
nan nan nan nan nan nan nan nan nan nan nan nan nan nan nan nan nan nan nan nan nan nan nan nan nan nan nan nan nan nan nan nan nan nan nan nan nan nan nan nan nan nan nan nan nan 38 40 40 40 40 40 40 41 42 44 46 46 43 42 42 42 41 41 42 39 36 33 32 31 31 31 30 29 nan nan nan nan nan nan nan nan nan nan nan nan nan nan
nan nan nan nan nan nan nan nan nan nan nan nan nan nan nan nan nan nan nan nan nan nan nan nan nan nan nan nan nan nan nan nan nan nan nan nan nan nan nan nan nan nan nan nan nan 34 37 38 35 34 34 35 36 37 37 38 38 38 38 38 37 37 38 38 36 34 34 33 31 29 27 nan nan nan nan nan nan nan nan nan nan nan nan nan nan nan nan
nan nan nan nan nan nan nan nan nan nan nan nan nan nan nan nan nan nan nan nan nan nan nan nan nan nan nan nan nan nan nan nan nan nan nan nan nan nan nan nan nan nan nan nan nan 32 33 nan 32 33 34 34 34 34 34 35 32 30 31 31 31 32 34 36 38 40 40 38 33 nan nan nan nan nan nan nan nan nan nan nan nan nan nan nan nan nan nan
nan nan nan nan nan nan nan nan nan nan nan nan nan nan nan nan nan nan nan nan nan nan nan nan nan nan nan nan nan nan nan nan nan nan nan nan nan nan nan nan nan nan nan 32 31 nan nan nan 31 32 32 32 33 35 35 31 28 27 28 27 26 27 nan nan nan nan 36 34 nan nan nan nan nan nan nan nan nan nan nan nan nan nan nan nan nan nan nan
21 nan nan nan nan nan nan nan nan nan nan nan nan nan nan nan nan nan nan nan nan nan nan nan nan nan nan nan nan nan nan nan nan nan nan nan nan nan nan nan 27 28 nan nan nan nan nan nan 29 29 30 30 32 35 33 29 28 27 25 25 25 26 nan nan nan nan nan nan nan nan nan nan nan nan nan nan nan nan nan nan nan nan nan nan nan nan nan
nan nan 19 20 21 20 20 21 nan nan nan nan nan nan nan nan nan nan nan nan nan nan nan nan nan nan nan nan nan nan nan nan nan nan nan nan nan nan nan nan nan nan nan nan nan nan nan nan nan nan nan 32 34 32 27 26 26 25 25 25 26 nan nan 25 23 nan nan nan nan nan nan nan nan nan nan nan nan nan nan nan nan nan nan nan nan nan nan
16 16 16 17 17 17 19 19 19 nan nan nan nan nan nan 21 22 nan nan nan nan nan nan nan nan nan nan nan nan nan nan nan nan nan nan nan nan nan nan nan nan 26 nan nan 28 nan nan nan nan nan nan nan nan nan nan nan nan nan nan nan nan nan nan nan nan nan nan nan nan nan nan nan nan nan nan nan nan nan nan nan nan nan nan nan nan nan nan
14 14 14 15 16 17 17 16 15 15 nan 16 19 20 21 21 22 22 22 nan 22 22 nan nan nan nan nan nan 23 22 23 25 25 nan 24 nan nan nan nan nan nan 25 nan nan nan nan nan nan nan nan nan nan nan nan nan nan nan nan nan nan nan nan nan nan nan nan nan nan nan nan nan nan nan nan nan nan nan nan nan nan nan nan nan nan nan nan nan
12 12 13 14 14 16 16 15 15 15 17 19 21 20 21 22 22 23 23 22 20 19 20 20 21 21 22 23 23 24 25 25 nan 27 26 26 nan nan 23 23 24 24 25 25 25 nan nan nan nan nan nan nan nan nan nan nan nan nan nan nan nan nan nan nan nan nan nan nan nan nan nan nan nan nan nan nan nan nan nan nan nan nan nan nan nan nan nan
11 11 12 12 13 16 17 16 17 20 21 21 19 20 21 22 23 22 21 21 20 19 19 20 21 22 23 23 24 24 24 24 nan nan nan nan nan 26 26 26 26 25 24 25 nan nan nan nan nan nan nan nan nan nan nan nan nan nan nan nan nan nan nan nan nan nan nan nan nan nan nan nan nan nan nan nan nan nan nan nan nan nan nan nan nan nan nan
12 12 12 13 14 17 18 18 19 19 20 20 21 22 23 22 21 22 20 20 20 20 20 20 20 21 22 23 23 24 25 25 24 23 24 24 24 25 25 26 25 24 23 24 25 nan nan nan nan nan nan nan nan nan nan nan nan nan nan nan nan nan nan nan nan nan nan nan nan nan nan nan nan nan nan nan nan nan nan nan nan nan nan nan nan nan nan
13 14 15 17 18 19 19 18 18 19 19 19 20 21 21 21 21 21 20 20 20 20 20 21 nan 22 22 23 nan 24 25 24 23 23 23 23 24 24 25 25 24 24 23 23 23 nan nan nan nan nan nan nan nan nan nan nan nan nan nan nan nan nan nan nan nan nan nan nan nan nan nan nan nan nan nan nan nan nan nan nan nan nan nan nan nan nan nan
15 16 17 17 18 18 18 18 17 17 17 17 17 18 19 20 20 19 19 20 20 22 nan nan nan nan nan nan 23 24 24 24 24 24 24 24 25 24 23 24 25 24 24 23 22 21 nan nan 21 nan 20 18 nan nan nan nan nan nan nan nan nan nan nan nan nan nan nan nan nan nan nan nan nan nan nan nan nan nan nan nan nan nan nan nan nan nan nan
15 nan 15 16 17 17 18 18 18 18 17 17 17 18 19 19 19 20 21 22 22 nan nan nan nan nan nan nan nan nan nan nan 24 24 24 24 24 24 25 24 22 23 22 22 21 21 21 21 21 20 nan 19 20 nan nan nan nan nan nan nan nan nan nan nan nan nan nan nan nan nan nan nan nan nan nan nan nan nan nan nan nan nan nan nan nan nan nan
Wind_Direction
nan nan nan nan nan nan nan nan nan nan nan nan nan nan nan nan nan nan nan nan nan nan nan nan 259 264 269 274 282 286 268 249 250 256 259 260 265 268 277 281 277 279 287 290 294 297 299 301 306 314 317 322 322 322 328 331 336 342 340 338 340 339 334 332 333 332 328 326 326 318 316 322 321 309 309 312 315 314 308 nan nan nan nan nan nan nan 294
nan nan nan nan nan nan nan nan nan nan nan nan nan nan nan nan nan nan nan nan nan nan nan nan nan 264 269 264 249 246 257 258 253 259 257 257 264 277 288 294 293 289 291 292 295 296 299 308 310 312 315 318 324 328 327 324 326 332 328 331 332 332 333 333 327 324 325 324 324 322 323 326 322 316 313 315 312 313 nan nan 309 nan nan nan nan 307 295
nan nan nan nan nan nan nan nan nan nan nan nan nan nan nan nan nan nan nan 247 242 nan nan nan 245 245 nan nan nan nan 261 252 255 265 267 264 271 282 287 286 291 290 292 295 298 301 306 313 317 315 313 312 316 326 323 322 322 322 320 322 322 324 327 325 322 322 325 328 326 327 327 323 316 315 319 315 312 311 312 nan 306 324 328 nan nan nan nan
nan nan nan nan nan nan nan nan nan nan nan nan nan nan nan nan nan nan nan nan nan nan nan nan nan 242 246 241 228 234 244 253 260 272 275 275 277 285 291 289 286 286 293 297 304 309 310 311 312 310 308 312 318 325 320 323 325 322 322 321 321 321 322 319 321 324 326 327 328 328 325 323 319 313 316 316 316 313 306 297 306 331 333 324 322 nan 301
nan nan nan nan nan nan nan nan nan nan nan nan nan nan nan nan nan nan nan nan nan nan 236 nan nan nan 242 224 214 218 232 242 253 265 278 281 280 284 288 289 289 293 298 302 306 304 301 302 305 307 304 308 317 319 322 325 323 322 321 319 317 317 317 320 323 324 323 325 325 327 324 322 315 310 312 315 317 318 315 305 313 334 nan 325 321 313 303
nan nan nan nan nan nan nan nan nan nan nan nan nan nan nan nan nan nan nan nan nan nan 237 nan 243 246 237 224 213 217 221 238 245 252 257 264 273 281 285 285 288 290 288 289 293 295 294 295 295 295 306 313 314 313 314 315 320 320 320 319 317 315 313 318 321 322 322 322 322 324 322 318 314 314 314 318 320 315 310 312 327 335 333 326 317 312 304
nan nan nan nan nan nan nan nan nan nan nan nan nan nan nan nan nan nan nan nan nan 236 nan nan 240 233 226 219 213 215 nan 232 239 248 247 252 266 275 276 277 279 278 281 282 283 284 291 296 296 298 302 303 301 304 308 313 315 316 318 318 316 313 312 313 315 318 319 319 319 319 318 319 315 316 314 319 319 316 317 322 328 333 330 323 317 311 303
nan nan nan nan nan nan nan nan nan nan nan nan nan nan nan nan nan nan nan nan nan 232 231 nan 225 225 227 nan 222 219 218 225 241 256 258 267 268 268 269 273 273 276 280 282 286 290 290 289 290 294 296 297 299 301 305 308 309 313 314 315 314 311 309 310 313 315 317 318 321 315 315 313 310 307 313 319 320 320 322 324 327 329 327 322 318 311 303
nan 227 nan nan 219 nan nan nan nan nan nan nan nan nan nan nan nan nan nan nan nan nan nan nan nan 229 nan 225 223 nan nan nan 225 238 252 261 259 251 249 258 264 266 272 276 280 279 280 282 284 286 286 290 294 297 302 305 306 308 310 312 311 309 309 310 312 313 315 319 317 313 314 313 311 310 313 317 320 320 322 325 329 332 331 327 319 310 304
nan nan nan nan nan nan nan nan nan nan nan nan nan nan nan nan nan nan nan nan 231 233 nan nan nan 237 nan nan 224 227 230 nan 236 240 244 248 249 252 255 252 258 261 263 266 269 274 276 273 272 274 278 285 291 296 298 300 303 305 308 310 307 307 309 310 312 312 312 313 312 313 312 314 311 308 311 315 318 318 321 326 nan nan 330 327 321 309 306
nan nan nan nan nan nan 227 225 219 nan nan nan nan nan nan 231 nan nan nan nan 231 237 240 242 243 240 nan 230 233 234 235 238 243 250 250 248 246 248 253 259 263 264 263 267 269 267 268 268 268 272 278 284 288 290 291 295 299 303 305 305 305 307 307 309 311 311 311 311 311 312 312 311 309 310 314 317 317 315 320 325 nan 327 327 325 317 310 315
nan nan nan nan nan 227 226 219 nan nan nan nan nan nan nan 235 nan 226 nan nan 234 235 239 247 247 245 239 236 238 238 239 241 243 247 251 250 249 249 251 252 255 258 261 263 262 263 264 266 270 275 280 283 284 285 287 292 296 299 302 303 304 305 306 307 309 309 308 309 309 310 309 307 304 307 310 313 315 316 322 327 328 329 328 323 317 314 322
nan nan nan 229 230 233 225 nan nan nan nan nan 242 nan 234 225 222 nan nan nan nan 236 241 244 239 226 223 227 238 243 246 248 246 244 245 246 249 251 251 252 254 254 253 256 260 263 267 271 273 277 280 280 281 284 288 292 296 299 301 302 304 305 305 305 306 307 306 307 307 305 304 301 301 307 309 311 312 317 324 327 327 327 327 319 310 306 314
nan nan nan nan 225 233 nan nan nan nan nan nan 247 237 nan nan nan nan nan nan nan nan 236 236 235 236 236 238 240 244 248 253 254 254 253 252 249 249 252 255 258 258 258 261 264 265 267 269 272 275 278 280 284 287 288 293 297 299 302 303 304 305 306 304 304 305 304 302 304 303 300 301 304 306 307 309 312 319 323 325 324 324 321 318 310 298 296
nan nan nan nan nan 231 nan 202 207 230 226 233 236 231 226 222 225 227 227 230 231 234 238 237 238 239 242 246 247 247 248 252 256 258 258 258 258 259 259 257 257 260 259 260 261 264 266 268 270 271 274 279 284 286 289 294 297 300 301 303 304 305 305 305 305 305 305 306 307 303 301 305 307 307 305 307 312 317 322 325 322 316 319 320 308 292 287
220 224 225 nan 223 nan nan nan 211 214 215 218 226 230 230 222 225 229 231 229 232 235 236 238 237 240 246 246 248 251 250 250 251 251 250 249 249 249 247 247 248 253 258 261 263 265 269 271 271 271 274 279 284 287 291 295 298 299 301 302 303 304 303 304 304 305 305 306 308 304 303 304 306 307 309 311 314 317 320 319 313 310 311 314 308 295 290
223 223 222 nan nan 207 208 nan nan 211 211 217 223 231 231 230 224 225 232 234 232 235 239 235 236 239 238 240 239 242 241 242 245 247 244 243 243 243 245 249 253 256 261 266 266 267 269 272 274 277 281 284 287 289 293 297 299 299 299 299 301 301 300 301 302 302 303 304 306 304 305 306 306 306 311 311 313 314 311 312 309 306 308 310 307 299 294
222 nan nan nan 202 203 205 205 209 212 212 210 212 222 232 228 230 229 233 234 236 235 234 239 235 238 240 240 241 243 244 245 247 249 249 248 250 252 257 261 263 265 265 265 265 266 269 273 277 281 284 285 287 289 293 296 296 296 296 297 297 297 297 299 301 301 302 303 305 304 304 304 305 303 308 311 313 311 309 308 307 305 307 308 305 299 293
nan nan 222 nan nan 203 207 204 nan nan nan nan nan nan nan nan nan nan 231 233 nan 233 233 235 238 239 241 246 246 245 245 245 247 248 249 248 249 252 257 262 267 265 264 264 266 269 273 277 280 282 284 284 285 289 292 293 294 294 294 294 293 294 296 297 298 299 299 299 299 301 303 303 303 305 306 308 310 310 310 306 302 304 304 303 297 292 291
222 nan 243 nan nan 206 nan nan nan nan nan nan nan nan nan 218 221 224 225 229 nan 232 233 232 236 237 238 241 241 242 243 245 245 243 242 241 243 242 244 249 255 257 259 265 271 276 279 282 283 283 284 285 287 289 289 290 290 290 291 291 292 293 296 297 297 297 297 299 300 297 299 301 302 303 304 306 307 307 305 302 301 302 302 298 293 291 291
nan nan 226 nan nan nan nan nan nan nan nan nan nan nan nan nan nan nan nan 225 nan nan 234 234 236 237 236 236 238 239 239 239 239 238 239 241 243 244 242 243 247 254 262 269 274 278 280 282 284 283 283 284 286 287 287 287 287 289 290 291 291 292 294 295 295 294 295 295 296 296 293 286 282 282 286 291 294 297 292 297 300 301 300 295 294 292 292
nan 248 nan nan nan nan nan nan nan nan nan nan nan nan nan nan nan nan nan nan nan nan nan 238 241 239 236 235 237 237 236 237 239 242 244 246 246 246 247 249 252 258 264 270 274 276 279 283 285 285 284 283 283 284 284 286 289 290 291 291 291 291 292 293 292 293 292 293 292 289 289 288 289 287 283 284 285 291 295 289 284 282 283 290 286 289 292
nan nan nan nan nan nan nan nan nan nan nan nan nan nan nan nan nan nan nan nan nan nan 230 233 238 237 235 233 nan nan nan 239 243 246 248 250 251 252 254 257 260 263 266 269 272 277 281 283 285 285 284 282 281 281 284 287 291 290 290 289 290 290 290 290 290 291 291 291 287 287 288 nan 292 293 294 289 282 281 284 286 286 284 285 284 280 277 286
nan nan nan nan nan nan nan nan nan nan nan nan nan nan nan nan nan nan nan nan nan nan nan nan nan nan nan nan nan nan nan nan nan nan 248 250 251 251 253 256 261 265 266 270 274 278 280 282 283 284 284 282 281 281 283 286 287 287 289 289 289 288 289 287 286 289 289 289 288 289 289 290 292 294 293 293 nan nan nan nan nan 284 285 285 287 289 287
nan nan nan nan nan nan nan nan nan nan nan nan nan nan nan nan nan nan nan nan nan nan nan nan nan nan nan nan nan nan nan nan nan nan 250 252 251 252 254 258 263 265 268 270 274 276 279 281 280 280 280 278 278 279 281 283 285 286 288 287 287 285 285 284 286 286 287 287 288 289 290 292 292 nan nan nan nan nan nan nan 284 283 282 283 286 288 287
nan nan nan nan nan nan nan nan nan nan nan nan nan nan nan nan nan nan nan nan nan nan nan nan nan nan nan nan nan nan nan nan nan nan nan nan 246 247 247 249 254 263 269 273 276 278 278 280 278 276 275 275 276 277 279 281 283 284 284 283 282 281 283 285 285 286 287 288 289 290 nan nan nan nan nan nan nan nan 296 294 290 285 281 278 280 282 281
nan nan nan nan nan nan nan nan nan nan nan nan nan nan nan nan nan nan nan nan nan nan nan nan nan nan nan nan nan nan nan nan nan nan nan nan nan nan 250 253 257 263 269 272 273 274 274 273 272 272 272 273 276 277 278 278 279 280 281 280 279 278 280 282 284 285 286 288 290 291 nan nan nan nan 298 298 297 297 297 296 295 293 292 287 279 276 286
nan nan nan nan nan nan nan nan nan nan nan nan nan nan nan nan nan nan nan nan nan nan nan nan nan nan nan nan nan nan nan nan nan nan nan nan nan nan 253 253 256 259 263 265 266 267 269 269 270 272 274 276 277 278 278 278 277 278 279 280 281 283 284 286 286 287 289 291 292 293 294 295 295 295 295 296 296 295 293 290 290 291 291 289 290 287 287
nan nan nan nan nan nan nan nan nan nan nan nan nan nan nan nan nan nan nan nan nan nan nan nan nan nan nan nan nan nan nan nan nan nan nan nan nan nan nan 251 253 256 258 260 262 265 267 270 273 275 277 278 279 280 279 278 277 276 275 277 282 286 289 291 292 292 292 292 293 294 294 293 293 294 294 293 293 291 289 288 290 292 293 293 293 294 296
nan nan nan nan nan nan nan nan nan nan nan nan nan nan nan nan nan nan nan nan nan nan nan nan nan nan nan nan nan nan nan nan nan nan nan nan nan nan nan 251 253 258 260 262 265 268 272 274 278 279 281 281 282 281 282 280 279 281 283 284 284 285 286 290 291 290 290 292 292 293 292 292 292 293 293 291 289 286 286 288 292 294 295 297 299 300 301
nan nan nan nan nan nan nan nan nan nan nan nan nan nan nan nan nan nan nan nan nan nan nan nan nan nan nan nan nan nan nan nan nan nan nan nan nan nan nan 253 253 254 256 259 265 273 277 279 279 281 283 283 284 284 284 283 285 286 284 285 287 289 288 287 289 290 290 292 293 292 289 289 290 290 289 287 285 284 286 290 293 295 298 299 301 301 nan
nan nan nan nan nan nan nan nan nan nan nan nan nan nan nan nan nan nan nan nan nan nan nan nan nan nan nan nan nan nan nan nan nan nan nan nan nan nan nan nan 259 258 258 261 266 273 277 279 281 284 283 284 285 287 286 284 283 286 287 287 286 285 288 292 290 289 289 290 289 288 287 286 286 286 285 283 284 285 289 291 295 297 299 300 nan nan nan
nan nan nan nan nan nan nan nan nan nan nan nan nan nan nan nan nan nan nan nan nan nan nan nan nan nan nan nan nan nan nan nan nan nan nan nan nan nan nan nan nan 263 263 264 266 270 276 280 281 283 285 286 286 285 285 286 287 288 288 288 288 291 291 290 288 288 286 287 286 285 283 281 282 284 284 285 286 288 290 292 294 297 nan nan nan nan nan
nan nan nan nan nan nan nan nan nan nan nan nan nan nan nan nan nan nan nan nan nan nan nan nan nan nan nan nan nan nan nan nan nan nan nan nan nan nan nan nan nan nan nan 268 270 273 276 278 281 284 286 287 285 286 288 289 289 289 288 288 289 288 288 287 287 284 285 286 284 280 276 277 281 284 286 287 287 288 289 291 nan nan nan nan nan nan nan
nan nan nan nan nan nan nan nan nan nan nan nan nan nan nan nan nan nan nan nan nan nan nan nan nan nan nan nan nan nan nan nan nan nan nan nan nan nan nan nan nan nan nan nan nan 274 277 281 284 286 287 287 287 288 288 290 289 287 287 286 285 285 285 284 284 284 285 283 280 277 277 280 283 285 285 285 285 286 nan nan 290 nan nan nan nan nan nan
nan nan nan nan nan nan nan nan nan nan nan nan nan nan nan nan nan nan nan nan nan nan nan nan nan nan nan nan nan nan nan nan nan nan nan nan nan nan nan nan nan nan nan nan nan nan nan 284 287 287 285 285 285 286 286 285 285 284 284 284 285 285 285 284 282 283 282 281 278 279 281 284 284 282 282 282 284 nan nan nan nan nan nan nan nan nan nan
nan nan nan nan nan nan nan nan nan nan nan nan nan nan nan nan nan nan nan nan nan nan nan nan nan nan nan nan nan nan nan nan nan nan nan nan nan nan nan nan nan nan nan 278 nan nan 283 285 288 289 285 285 285 285 285 285 282 282 283 283 284 284 283 281 281 281 279 278 280 284 286 284 281 280 281 283 nan nan 289 nan nan nan nan nan nan nan nan
nan nan nan nan nan nan nan nan nan nan nan nan nan nan nan nan nan nan nan nan nan nan nan nan nan nan nan nan nan nan nan nan nan nan nan nan nan nan nan nan nan nan nan 280 nan 287 287 288 292 287 284 282 281 282 285 285 283 283 282 283 282 280 279 280 283 281 279 278 283 286 286 284 284 284 283 nan nan nan nan nan nan nan nan nan nan nan nan
nan nan nan nan nan nan nan nan nan nan nan nan nan nan nan nan nan nan nan nan nan nan nan nan nan nan nan nan nan nan nan nan nan nan nan nan nan nan nan nan nan nan nan nan nan 285 284 285 287 286 286 285 285 282 281 281 280 279 280 279 279 280 280 280 279 279 280 285 290 289 285 283 282 nan nan nan nan nan nan nan nan nan nan nan nan nan nan
nan nan nan nan nan nan nan nan nan nan nan nan nan nan nan nan nan nan nan nan nan nan nan nan nan nan nan nan nan nan nan nan nan nan nan nan nan nan nan nan nan nan nan nan nan 285 283 281 281 283 285 286 286 286 284 281 279 278 278 278 278 278 276 276 277 282 290 297 298 294 289 nan nan nan nan nan nan nan nan nan nan nan nan nan nan nan nan
nan nan nan nan nan nan nan nan nan nan nan nan nan nan nan nan nan nan nan nan nan nan nan nan nan nan nan nan nan nan nan nan nan nan nan nan nan nan nan nan nan nan nan nan nan 288 287 nan 285 287 289 290 291 290 288 286 283 281 282 282 282 280 279 279 279 283 290 295 296 nan nan nan nan nan nan nan nan nan nan nan nan nan nan nan nan nan nan
nan nan nan nan nan nan nan nan nan nan nan nan nan nan nan nan nan nan nan nan nan nan nan nan nan nan nan nan nan nan nan nan nan nan nan nan nan nan nan nan nan nan nan 281 284 nan nan nan 293 294 294 294 294 291 291 291 291 292 290 288 287 287 nan nan nan nan 285 286 nan nan nan nan nan nan nan nan nan nan nan nan nan nan nan nan nan nan nan
237 nan nan nan nan nan nan nan nan nan nan nan nan nan nan nan nan nan nan nan nan nan nan nan nan nan nan nan nan nan nan nan nan nan nan nan nan nan nan nan 276 277 nan nan nan nan nan nan 296 295 294 295 296 298 298 297 296 293 289 286 287 290 nan nan nan nan nan nan nan nan nan nan nan nan nan nan nan nan nan nan nan nan nan nan nan nan nan
nan nan 252 253 254 256 257 259 nan nan nan nan nan nan nan nan nan nan nan nan nan nan nan nan nan nan nan nan nan nan nan nan nan nan nan nan nan nan nan nan nan nan nan nan nan nan nan nan nan nan nan 297 297 296 293 291 290 287 284 283 286 nan nan 288 287 nan nan nan nan nan nan nan nan nan nan nan nan nan nan nan nan nan nan nan nan nan nan
249 251 253 254 255 256 255 256 256 nan nan nan nan nan nan 269 272 nan nan nan nan nan nan nan nan nan nan nan nan nan nan nan nan nan nan nan nan nan nan nan nan 285 nan nan 293 nan nan nan nan nan nan nan nan nan nan nan nan nan nan nan nan nan nan nan nan nan nan nan nan nan nan nan nan nan nan nan nan nan nan nan nan nan nan nan nan nan nan
244 247 252 256 259 258 258 259 263 266 nan 273 272 271 269 269 271 274 277 nan 276 274 nan nan nan nan nan nan 260 259 259 260 265 nan 269 nan nan nan nan nan nan 286 nan nan nan nan nan nan nan nan nan nan nan nan nan nan nan nan nan nan nan nan nan nan nan nan nan nan nan nan nan nan nan nan nan nan nan nan nan nan nan nan nan nan nan nan nan
237 245 251 256 264 270 267 268 273 274 269 263 261 262 265 267 269 272 274 274 274 271 269 267 265 263 263 262 261 261 259 260 nan 272 271 274 nan nan 281 285 287 292 297 294 291 nan nan nan nan nan nan nan nan nan nan nan nan nan nan nan nan nan nan nan nan nan nan nan nan nan nan nan nan nan nan nan nan nan nan nan nan nan nan nan nan nan nan
241 247 253 256 259 267 272 270 268 266 265 266 268 267 265 266 268 268 271 272 271 270 268 266 263 261 262 265 268 272 273 271 nan nan nan nan nan 277 281 285 287 291 293 292 nan nan nan nan nan nan nan nan nan nan nan nan nan nan nan nan nan nan nan nan nan nan nan nan nan nan nan nan nan nan nan nan nan nan nan nan nan nan nan nan nan nan nan
250 253 258 263 266 266 264 263 264 267 268 266 265 263 261 260 263 267 263 263 263 263 261 259 261 262 263 268 270 270 273 278 278 273 272 273 275 278 280 284 289 294 290 288 288 nan nan nan nan nan nan nan nan nan nan nan nan nan nan nan nan nan nan nan nan nan nan nan nan nan nan nan nan nan nan nan nan nan nan nan nan nan nan nan nan nan nan
252 254 258 260 260 261 264 266 267 268 268 265 260 259 259 257 253 252 254 256 259 261 264 263 nan 265 268 267 nan 269 272 274 278 279 280 280 279 281 285 284 283 284 283 279 280 nan nan nan nan nan nan nan nan nan nan nan nan nan nan nan nan nan nan nan nan nan nan nan nan nan nan nan nan nan nan nan nan nan nan nan nan nan nan nan nan nan nan
252 256 260 261 264 267 270 272 271 267 264 259 257 254 254 254 252 253 254 254 256 257 nan nan nan nan nan nan 265 268 271 274 278 282 281 282 284 283 283 283 285 286 285 284 281 281 nan nan 287 nan 293 291 nan nan nan nan nan nan nan nan nan nan nan nan nan nan nan nan nan nan nan nan nan nan nan nan nan nan nan nan nan nan nan nan nan nan nan
260 nan 266 269 270 270 271 270 270 270 267 263 258 255 254 254 255 253 256 258 258 nan nan nan nan nan nan nan nan nan nan nan 276 279 282 283 285 283 285 286 282 284 285 283 282 283 282 283 286 290 nan 290 290 nan nan nan nan nan nan nan nan nan nan nan nan nan nan nan nan nan nan nan nan nan nan nan nan nan nan nan nan nan nan nan nan nan nan